Location: Eaton Estates
(41.3089°N, 82.0057°W)
Time: 12:55:52
(UTC+00:00)

Cosmos 2123 Rocket - Pass Details

Date: 16 October 2021
Orbit: 961 x 992 km, 82.9° (Epoch: 29 November)

Event Time Altitude Azimuth Distance (km) Brightness Sun altitude
Rises 00:32:56 0° 353° (N) 3,717 7.2 -20.7°
Reaches altitude 10° 00:35:29 10° 354° (N) 2,764 6.5 -21.2°
Maximum altitude 00:41:51 84° 82° (E) 1,001 3.9 -22.4°
Drops below altitude 10° 00:48:09 10° 172° (S) 2,735 6.2 -23.5°
Sets 00:50:39 0° 173° (S) 3,676 6.9 -24.0°
